TimeEDT,TemperatureF,Dew PointF,Humidity,Sea Level PressureIn,VisibilityMPH,Wind Direction,Wind SpeedMPH,Gust SpeedMPH,PrecipitationIn,Events,Conditions,WindDirDegrees,DateUTC
12:14 AM,53.6,53.6,100,29.71,0.2,South,3.5,-,N/A,Fog,Fog,190,2013-05-12 04:14:00
12:22 AM,53.6,53.6,100,29.70,0.2,SSE,3.5,-,N/A,Fog,Fog,160,2013-05-12 04:22:00
12:56 AM,55.0,53.1,93,29.70,0.2,SSE,3.5,-,N/A,Fog,Fog,150,2013-05-12 04:56:00
1:56 AM,57.0,55.0,93,29.69,0.2,Calm,Calm,-,N/A,Fog,Fog,0,2013-05-12 05:56:00
2:56 AM,57.9,55.9,93,29.66,0.2,Calm,Calm,-,N/A,Fog,Fog,0,2013-05-12 06:56:00
3:20 AM,55.4,55.4,100,29.65,0.5,ESE,6.9,-,N/A,Fog,Fog,120,2013-05-12 07:20:00
3:35 AM,55.4,53.6,94,29.65,0.2,SE,4.6,-,N/A,Fog,Fog,140,2013-05-12 07:35:00
3:46 AM,55.4,53.6,94,29.66,0.2,SSE,4.6,-,N/A,Fog,Fog,160,2013-05-12 07:46:00
3:56 AM,54.0,53.1,97,29.67,0.2,SSE,4.6,-,N/A,Fog,Fog,160,2013-05-12 07:56:00
4:56 AM,53.1,52.0,96,29.66,0.2,Calm,Calm,-,N/A,Fog,Fog,0,2013-05-12 08:56:00
5:05 AM,53.6,51.8,94,29.66,0.2,Calm,Calm,-,N/A,Fog,Fog,0,2013-05-12 09:05:00
5:27 AM,53.6,53.6,100,29.67,0.2,Calm,Calm,-,0.00,Fog-Rain,Light Rain,0,2013-05-12 09:27:00
5:56 AM,54.0,53.1,97,29.67,0.2,Calm,Calm,-,0.00,Fog-Rain,Light Rain,0,2013-05-12 09:56:00
6:37 AM,53.6,53.6,100,29.66,0.2,Calm,Calm,-,0.00,Fog,Fog,0,2013-05-12 10:37:00
6:44 AM,53.6,51.8,94,29.66,0.2,Calm,Calm,-,0.00,Fog-Rain,Light Rain,0,2013-05-12 10:44:00
6:56 AM,54.0,52.0,93,29.67,0.2,SSW,5.8,-,0.00,Fog-Rain,Light Rain,210,2013-05-12 10:56:00
7:56 AM,55.9,55.0,97,29.66,0.2,Calm,Calm,-,0.00,Fog,Fog,0,2013-05-12 11:56:00
8:32 AM,57.2,55.4,94,29.66,0.5,SW,5.8,-,0.00,Fog-Rain,Light Rain,230,2013-05-12 12:32:00
8:42 AM,55.4,55.4,100,29.66,1.8,SW,6.9,-,0.00,Rain,Light Rain,230,2013-05-12 12:42:00
8:47 AM,55.4,53.6,94,29.66,2.0,SW,5.8,-,0.00,Rain,Light Rain,230,2013-05-12 12:47:00
8:56 AM,57.0,55.0,93,29.67,2.5,WSW,6.9,-,0.00,,Overcast,250,2013-05-12 12:56:00
9:09 AM,57.2,55.4,94,29.66,2.0,WSW,5.8,-,N/A,,Overcast,250,2013-05-12 13:09:00
9:37 AM,57.2,55.4,94,29.63,2.5,Calm,Calm,-,N/A,,Overcast,0,2013-05-12 13:37:00
9:45 AM,59.0,55.4,88,29.63,3.0,Calm,Calm,-,N/A,,Mostly Cloudy,0,2013-05-12 13:45:00
9:56 AM,61.0,57.0,87,29.63,4.0,SSW,6.9,-,N/A,,Mostly Cloudy,200,2013-05-12 13:56:00
10:56 AM,59.0,55.0,87,29.65,5.0,WSW,10.4,-,N/A,,Scattered Clouds,250,2013-05-12 14:56:00
11:56 AM,60.1,53.1,78,29.65,7.0,WSW,13.8,-,N/A,,Clear,240,2013-05-12 15:56:00
12:56 PM,61.0,52.0,72,29.64,8.0,WSW,12.7,-,N/A,,Clear,240,2013-05-12 16:56:00
1:56 PM,64.0,51.1,63,29.63,10.0,WSW,16.1,24.2,N/A,,Clear,240,2013-05-12 17:56:00
2:56 PM,66.0,48.9,54,29.63,10.0,SW,16.1,21.9,N/A,,Clear,230,2013-05-12 18:56:00
3:56 PM,68.0,43.0,40,29.62,9.0,West,16.1,25.3,N/A,,Clear,260,2013-05-12 19:56:00
4:56 PM,69.1,39.9,35,29.63,9.0,West,16.1,27.6,N/A,,Clear,270,2013-05-12 20:56:00
5:56 PM,66.0,44.1,45,29.65,9.0,NNW,16.1,-,N/A,,Clear,340,2013-05-12 21:56:00
6:56 PM,63.0,43.0,48,29.68,9.0,NW,8.1,-,N/A,,Scattered Clouds,310,2013-05-12 22:56:00
7:56 PM,62.1,39.0,43,29.71,10.0,WNW,11.5,-,N/A,,Mostly Cloudy,290,2013-05-12 23:56:00
8:56 PM,60.1,25.0,26,29.75,10.0,WNW,12.7,19.6,N/A,,Partly Cloudy,290,2013-05-13 00:56:00
9:56 PM,57.0,26.1,30,29.79,10.0,WNW,9.2,-,N/A,,Clear,300,2013-05-13 01:56:00
10:56 PM,55.0,25.0,31,29.83,10.0,WNW,12.7,19.6,N/A,,Clear,290,2013-05-13 02:56:00
11:56 PM,52.0,27.0,38,29.86,10.0,WNW,4.6,-,N/A,,Clear,300,2013-05-13 03:56:00